Location: Unspecified
(0.0000°N, 0.0000°E)
Time: 10:09:05
(UTC+00:00)

Courier 1B Rocket - Pass Details

Date: 24 May 2026
Orbit: 920 x 1201 km, 28.2° (Epoch: 9 June)

Event Time Altitude Azimuth Distance (km) Brightness Sun altitude
Rises 23:15:24 0° 234° (SW) 4,084 - -66.8°
Reaches altitude 10° 23:18:20 10° 231° (SW) 3,103 - -67.1°
Maximum altitude 23:25:58 64° 150° (SSE) 1,248 - -67.8°
Drops below altitude 10° 23:33:10 10° 70° (ENE) 2,929 - -68.3°
Sets 23:35:51 0° 67° (ENE) 3,843 - -68.5°
